SAS173 ENKB-ENBR

Flight info

Callsign SAS173
Flight time N/A
Altitude 34000
Route TUTOP DCT NIDGI
Aircraft B737/M-SDE2E3FGHIRWXY/LB1

Departure

Time N/A
Airport Kristiansund Airport, Kvernberget (ENKB)

Arrival

Time 2026-05-01 08:22
Airport Bergen Airport, Flesland (ENBR)
Time Latitude Longitude Altitude Speed Heading
2026-05-01 08:07 61.25600 5.72533 19216 ft 388 kts 205°
2026-05-01 08:08 61.23058 5.70676 18696 ft 386 kts 205°
2026-05-01 08:08 61.18060 5.66995 17547 ft 382 kts 205°
2026-05-01 08:09 61.13107 5.63335 16424 ft 374 kts 205°
2026-05-01 08:09 61.10675 5.61538 15870 ft 368 kts 205°
2026-05-01 08:09 61.08277 5.59769 15336 ft 363 kts 205°
2026-05-01 08:10 61.03585 5.56314 14284 ft 354 kts 205°
2026-05-01 08:10 60.98993 5.52938 13141 ft 347 kts 205°
2026-05-01 08:11 60.94474 5.49629 12045 ft 342 kts 204°
2026-05-01 08:11 60.90055 5.46405 10931 ft 331 kts 204°
2026-05-01 08:12 60.85786 5.43299 9823 ft 322 kts 203°
2026-05-01 08:12 60.83686 5.41774 9272 ft 319 kts 203°
2026-05-01 08:12 60.79517 5.38745 8149 ft 316 kts 202°
2026-05-01 08:13 60.77471 5.37268 7692 ft 306 kts 202°
2026-05-01 08:13 60.75496 5.35846 7327 ft 296 kts 202°
2026-05-01 08:13 60.71734 5.33132 6639 ft 277 kts 201°
2026-05-01 08:14 60.69949 5.31860 6306 ft 267 kts 201°
2026-05-01 08:14 60.68221 5.30614 5967 ft 260 kts 201°
2026-05-01 08:14 60.66541 5.29402 5699 ft 253 kts 201°
2026-05-01 08:14 60.64898 5.28220 5410 ft 247 kts 200°
2026-05-01 08:15 60.63297 5.27072 5156 ft 240 kts 200°
2026-05-01 08:15 60.60217 5.24865 4662 ft 234 kts 200°
2026-05-01 08:15 60.58676 5.23764 4414 ft 235 kts 200°
2026-05-01 08:16 60.57137 5.22666 4188 ft 235 kts 199°
2026-05-01 08:16 60.55596 5.21568 3940 ft 235 kts 199°
2026-05-01 08:16 60.54054 5.20469 3685 ft 234 kts 199°
2026-05-01 08:16 60.52522 5.19376 3478 ft 232 kts 199°
2026-05-01 08:17 60.51010 5.18298 3223 ft 229 kts 198°
2026-05-01 08:17 60.49533 5.17251 3054 ft 218 kts 198°
2026-05-01 08:17 60.48163 5.16283 3014 ft 199 kts 197°
2026-05-01 08:17 60.46861 5.16076 3000 ft 182 kts 174°
2026-05-01 08:18 60.45655 5.16419 2994 ft 171 kts 175°
2026-05-01 08:18 60.43751 5.16978 2889 ft 164 kts 174°
2026-05-01 08:19 60.41546 5.17710 2461 ft 157 kts 173°
2026-05-01 08:19 60.40487 5.18068 2266 ft 152 kts 173°
2026-05-01 08:19 60.39444 5.18419 2034 ft 151 kts 172°
2026-05-01 08:19 60.38445 5.18754 1825 ft 138 kts 172°
2026-05-01 08:20 60.37537 5.19058 1669 ft 129 kts 172°
2026-05-01 08:20 60.36674 5.19349 1492 ft 124 kts 172°
2026-05-01 08:20 60.35843 5.19625 1285 ft 118 kts 172°
2026-05-01 08:20 60.35014 5.19897 1090 ft 123 kts 169°
2026-05-01 08:21 60.34165 5.20214 898 ft 124 kts 170°
2026-05-01 08:21 60.33318 5.20504 751 ft 124 kts 169°
2026-05-01 08:21 60.32460 5.20798 612 ft 125 kts 169°
2026-05-01 08:21 60.31604 5.21077 427 ft 125 kts 168°
2026-05-01 08:22 60.30750 5.21357 271 ft 123 kts 168°
2026-05-01 08:22 60.29924 5.21623 176 ft 112 kts 167°
2026-05-01 08:22 60.29277 5.21843 173 ft 73 kts 171°
2026-05-01 08:22 60.28931 5.21955 174 ft 19 kts 167°
2026-05-01 08:23 60.28920 5.22103 172 ft 12 kts 78°
2026-05-01 08:23 60.28922 5.22133 172 ft 12 kts 81°